This demonstration page uses our WeatherBlox Daily Observations layout. Learn more.

Left ArrowRight Arrow

Hourly Observations for November 17, 2015

Temp ( °F °C ) Dew Point ( °F °C ) Humidity (%) Winds ( mph kmh ) Pressure ( in mb ) Visibility ( mi km ) Precip ( " mm )
12:53 am 00:53 Clear 49 9.4 46 7.8 90 90 Calm 30.20 1023 10 16 0.00 0.00
1:53 am 01:53 Mostly Cloudy 50 10 46 7.8 86 86 ENE 3 6 30.19 1023 10 16 0.00 0.00
2:53 am 02:53 Cloudy 53 11.7 48 8.9 83 83 Calm 30.18 1022 10 16 0.00 0.00
3:03 am 03:03 Cloudy 52 11 48 9 88 88 Calm 30.21 1023 10 16 0.00 0.00
3:53 am 03:53 Cloudy 53 11.7 48 8.9 83 83 NNE 3 6 30.16 1022 10 16 0.00 0.00
4:53 am 04:53 Cloudy 57 13.9 51 10.6 81 81 E 8 13 30.16 1021 10 16 0.00 0.00
5:53 am 05:53 Cloudy 58 14.4 51 10.6 78 78 E 6 9 30.17 1022 10 16 0.00 0.00
6:53 am 06:53 Cloudy 58 14.4 50 10 75 75 E 8 13 30.18 1022 10 16 0.00 0.00
7:53 am 07:53 Cloudy 58 14.4 50 10 75 75 E 6 9 30.19 1022 10 16 0.00 0.00
8:30 am 08:30 Cloudy 59 15 52 11 77 77 E 5 7 30.18 1022 10 16 0.00 0.00
8:46 am 08:46 Cloudy 59 15 52 11 77 77 E 7 11 30.18 1022 10 16 0.00 0.00
8:53 am 08:53 Cloudy 59 15 51 10.6 75 75 E 7 11 30.20 1023 10 16 0.00 0.00
9:53 am 09:53 Sunny 61 16.1 52 11.1 72 72 E 10 17 30.19 1022 10 16 0.00 0.00
10:53 am 10:53 Sunny 65 18.3 52 11.1 63 63 E 13 20 30.18 1022 10 16 0.00 0.00
11:53 am 11:53 Mostly Sunny 68 20 54 12.2 61 61 ESE 13 20 30.16 1021 10 16 0.00 0.00
12:53 pm 12:53 Mostly Sunny 69 20.6 54 12.2 59 59 E 8 13 30.12 1020 10 16 0.00 0.00
1:53 pm 13:53 Sunny 70 21.1 53 11.7 55 55 SE 15 24 30.11 1020 10 16 0.00 0.00
2:53 pm 14:53 Mostly Sunny 70 21.1 53 11.7 55 55 ESE 10 17 30.10 1019 10 16 0.00 0.00
3:53 pm 15:53 Sunny 70 21.1 53 11.7 55 55 ESE 10 17 30.09 1019 10 16 0.00 0.00
4:53 pm 16:53 Cloudy 68 20 53 11.7 59 59 E 14 22 30.08 1019 10 16 0.00 0.00
5:53 pm 17:53 Cloudy 65 18.3 52 11.1 63 63 E 15 24 30.10 1019 10 16 0.00 0.00
6:00 pm 18:00 Cloudy 64 18 52 11 64 64 E 13 20 30.12 1020 10 16 0.00 0.00
6:53 pm 18:53 Cloudy 64 17.8 53 11.7 68 68 E 14 22 30.11 1020 10 16 0.00 0.00
7:53 pm 19:53 Cloudy 64 17.8 52 11.1 65 65 E 9 15 30.13 1020 10 16 0.00 0.00
8:53 pm 20:53 Cloudy 64 17.8 51 10.6 63 63 E 13 20 30.13 1020 10 16 0.00 0.00
9:53 pm 21:53 Cloudy 63 17.2 52 11.1 68 68 E 13 20 30.13 1020 10 16 0.00 0.00
10:53 pm 22:53 Cloudy 63 17.2 53 11.7 70 70 E 12 19 30.11 1020 10 16 0.00 0.00
11:53 pm 23:53 Cloudy 62 16.7 52 11.1 70 70 E 12 19 30.10 1019 10 16 0.00 0.00

Powered by AerisWeather